Location: ??????
(38.0131°N, 23.7723°E)
Time: 04:49:23
(UTC+00:00)

Cosmos 1934 Rocket - Pass Details

Date: 17 October 2021
Orbit: 938 x 999 km, 83.0° (Epoch: 28 November)

Event Time Altitude Azimuth Distance (km) Brightness Sun altitude
Rises 16:25:52 0° 160° (SSE) 3,638 6.8 -8.9°
Reaches altitude 10° 16:28:35 10° 151° (SSE) 2,686 6.1 -9.4°
Maximum altitude 16:34:02 35° 88° (E) 1,500 4.5 -10.5°
Drops below altitude 10° 16:39:27 10° 25° (NNE) 2,670 6.0 -11.6°
Sets 16:42:07 0° 17° (NNE) 3,613 6.8 -12.1°
